User: anonymous   Login
Location: Unspecified
(0.0000°N, 0.0000°E)
Time: 14:26:18
(UTC+00:00)
Language:

S-NET B - Orbit

View from above orbital plane
View from above orbital plane
View from above satellite
View from above satellite

Ground track
Ground track

The orbit data is extracted from the following two-line orbital elements,

1 43187U 18014H   21333.37328018  .00000476  00000-0  46042-4 0  9998
2 43187  97.6682 237.8531 0009185 247.0333 112.9920 14.97251195208971
Epoch (UTC): 29 November 2021 08:57:31
Eccentricity: 0.0009185
inclination: 97.6682°
perigee height: 569 km
apogee height: 582 km
right ascension of ascending node: 237.8531°
argument of perigee: 247.0333°
revolutions per day: 14.97251195
mean anomaly at epoch: 112.9920°
orbit number at epoch: 20897

The dashed part of the orbit path shows where the satellite is in the earth's shadow,  

DLR